1505376000.39,26163,16.06,73654.0,12.37,-19.37,-20.29,0,*4F
1505376001.62,26164,16.0,73644.8,12.39,-18.45,-19.27,0,*46
1505376002.85,26165,16.0,73656.0,12.41,-18.07,-18.99,0,*4A
1505376004.11,26166,16.0,73654.3,12.43,-19.41,-20.53,0,*45
1505376005.37,26167,16.0,73648.3,12.41,-21.23,-22.27,0,*48
1505376006.6,26168,16.0,73644.5,12.41,-19.75,-20.93,0,*42
1505376007.84,26169,16.0,73652.3,12.41,-18.99,-19.95,0,*4C
1505376009.08,26170,16.06,73644.5,12.41,-20.43,-21.63,0,*4A
1505376010.31,26171,16.06,73642.0,12.41,-22.57,-23.75,0,*49
1505376011.57,26172,16.06,73638.3,12.37,-21.03,-22.11,0,*4A
1505376012.82,26173,16.06,73636.0,12.37,-18.59,-19.51,0,*42
1505376014.06,26174,16.0,73640.0,12.39,-18.31,-19.17,0,*47
1505376015.26,26175,16.06,73636.3,12.39,-18.79,-19.71,0,*4A
1505376016.49,26176,16.0,73630.0,12.43,-19.91,-20.99,0,*4F
1505376017.75,26177,16.06,73620.3,12.41,-20.99,-22.11,0,*4C
1505376019.01,26178,16.06,73616.3,12.41,-20.83,-21.93,0,*41
1505376020.22,26179,16.06,73632.8,12.39,-19.07,-19.99,0,*48
1505376021.48,26180,16.06,73630.3,12.43,-19.27,-20.19,0,*43
1505376022.7,26181,16.0,73628.5,12.43,-19.13,-20.05,0,*48
1505376023.95,26182,16.06,73632.8,12.43,-18.93,-19.85,0,*40
1505376025.15,26183,16.06,73638.5,12.43,-18.49,-19.47,0,*48
1505376026.44,26184,16.0,73632.5,12.45,-19.41,-20.49,0,*44
1505376027.7,26185,16.06,73638.8,12.45,-19.47,-20.53,0,*48
1505376028.94,26186,16.0,73636.3,12.45,-18.69,-19.47,0,*49
1505376030.22,26187,16.06,73640.0,12.49,-18.35,-19.23,0,*4F
1505376031.47,26188,16.06,73644.3,12.51,-17.97,-18.89,0,*4F
1505376032.73,26189,16.06,73636.5,12.51,-18.59,-19.61,0,*44
1505376033.93,26190,16.06,73628.8,12.55,-18.07,-18.99,0,*45
1505376035.12,26191,16.06,73622.0,12.55,-18.07,-18.83,0,*4F
1505376036.35,26192,16.06,73626.3,12.57,-18.11,-19.03,0,*40
1505376037.55,26193,16.06,73630.3,12.59,-17.87,-18.79,0,*43
1505376038.79,26194,16.06,73632.3,12.61,-18.93,-19.95,0,*46
1505376040.0,26195,16.06,73636.5,12.61,-19.51,-20.69,0,*41
1505376041.2,26196,16.06,73638.3,12.59,-19.07,-19.99,0,*4F
1505376042.41,26197,16.06,73638.8,12.59,-19.71,-20.73,0,*41
1505376043.62,26198,16.06,73634.5,12.59,-18.99,-19.95,0,*4B
1505376044.85,26199,16.06,73632.8,12.61,-18.83,-19.65,0,*45
1505376046.08,26200,16.06,73632.5,12.61,-17.25,-18.17,0,*41
1505376047.32,26201,16.06,73630.3,12.63,-16.59,-17.35,0,*47
1505376048.53,26202,16.06,73626.5,12.69,-16.41,-17.31,0,*43
1505376049.78,26203,16.06,73632.3,12.69,-17.11,-17.93,0,*4E
1505376051.0,26204,16.06,73632.5,12.73,-17.69,-18.59,0,*44
1505376052.28,26205,16.06,73630.0,12.75,-17.97,-18.93,0,*44
1505376053.51,26206,16.06,73634.3,12.77,-19.91,-20.99,0,*4C
1505376054.74,26207,16.06,73630.8,12.75,-20.63,-21.77,0,*49
1505376055.97,26208,16.06,73634.8,12.73,-19.99,-21.03,0,*4C
1505376057.2,26209,16.06,73634.0,12.73,-20.53,-21.63,0,*47
1505376058.43,26210,16.06,73632.0,12.73,-21.63,-22.73,0,*4F
1505376059.71,26211,16.06,73630.0,12.67,-21.23,-22.21,0,*48
1505376060.97,26212,16.06,73628.0,12.67,-20.43,-21.57,0,*4E
1505376062.23,26213,16.06,73616.3,12.63,-21.23,-22.27,0,*48
1505376063.51,26214,16.06,73616.0,12.63,-22.77,-24.11,0,*4E
1505376064.75,26215,16.06,73618.0,12.61,-22.97,-24.25,0,*44
1505376065.98,26216,16.06,73620.0,12.59,-21.87,-22.93,0,*45
1505376067.19,26217,16.06,73618.3,12.55,-21.77,-22.97,0,*43
1505376068.41,26218,16.06,73624.3,12.55,-22.83,-23.99,0,*4B
1505376069.64,26219,16.06,73632.8,12.51,-22.63,-23.85,0,*4D
1505376070.86,26220,16.06,73630.0,12.51,-19.95,-20.89,0,*49
1505376072.1,26221,16.06,73622.5,12.51,-19.31,-20.29,0,*4C
1505376073.38,26222,16.06,73600.0,12.53,-20.15,-21.23,0,*4A
1505376074.61,26223,16.06,73606.8,12.51,-21.03,-21.93,0,*44
1505376075.83,26224,16.06,73616.8,12.51,-19.37,-20.43,0,*43
1505376077.08,26225,16.06,73612.0,12.51,-18.31,-19.23,0,*49
1505376078.34,26226,16.06,73614.5,12.53,-19.23,-20.29,0,*4A
1505376079.57,26227,16.06,73608.0,12.55,-18.35,-19.17,0,*4C
1505376080.81,26228,16.06,73600.0,12.57,-19.17,-20.25,0,*4B
1505376082.07,26229,16.06,73606.3,12.57,-19.91,-20.83,0,*48
1505376083.3,26230,16.06,73612.8,12.55,-20.53,-21.77,0,*4C
1505376084.51,26231,16.06,73616.8,12.55,-19.13,-20.05,0,*47
1505376085.7,26232,16.06,73612.8,12.55,-20.05,-21.13,0,*4F
1505376086.92,26233,16.06,73614.3,12.55,-20.09,-21.03,0,*43
1505376088.22,26234,16.06,73618.3,12.57,-19.57,-20.53,0,*43
1505376089.43,26235,16.06,73618.5,12.59,-18.99,-19.95,0,*4F
1505376090.66,26236,16.06,73632.3,12.59,-19.37,-20.79,0,*41
1505376091.9,26237,16.06,73622.8,12.55,-24.47,-25.75,0,*4C
1505376093.14,26238,16.06,73626.5,12.53,-23.23,-24.35,0,*45
1505376094.35,26239,16.06,73636.5,12.51,-20.69,-21.63,0,*4D
1505376095.57,26240,16.06,73632.0,12.51,-20.15,-21.17,0,*4B
1505376096.83,26241,16.06,73642.5,12.53,-18.73,-19.61,0,*49
1505376098.05,26242,16.06,73630.0,12.51,-23.69,-24.97,0,*4C
1505376099.31,26243,16.06,73628.5,12.49,-23.95,-24.77,0,*49
1505376100.59,26244,16.06,73620.0,12.45,-22.21,-23.33,0,*4B
1505376101.85,26245,16.06,73604.8,12.41,-22.07,-23.19,0,*42
1505376103.11,26246,16.06,73610.0,12.41,-21.53,-22.93,0,*40
1505376104.35,26247,16.06,73604.3,12.41,-20.39,-21.47,0,*46
1505376105.55,26248,16.06,73602.5,12.43,-19.75,-20.69,0,*44
1505376106.83,26249,16.06,73606.0,12.41,-20.19,-21.23,0,*48
1505376108.07,26250,16.06,73608.3,12.43,-21.53,-22.97,0,*41
1505376109.36,26251,16.06,73620.8,12.41,-23.53,-24.83,0,*43
1505376110.59,26252,16.06,73618.0,12.39,-24.05,-25.45,0,*40
1505376111.82,26253,16.06,73584.5,12.35,-25.91,-27.39,0,*48
1505376113.06,26254,16.06,73574.8,12.31,-24.71,-26.03,0,*4C
1505376114.33,26255,16.06,73582.3,12.27,-24.41,-25.55,0,*49
1505376115.58,26256,16.06,73580.8,12.23,-23.03,-24.15,0,*4A
1505376116.8,26257,16.06,73602.3,12.21,-25.19,-26.49,0,*4F
1505376118.03,26258,16.06,73602.0,12.19,-22.77,-23.89,0,*4D
1505376119.28,26259,16.06,73602.8,12.17,-20.09,-21.03,0,*49
1505376120.51,26260,16.06,73602.3,12.19,-18.49,-19.41,0,*4F
1505376121.73,26261,16.06,73602.5,12.21,-18.07,-18.99,0,*4B
1505376122.93,26262,16.06,73600.3,12.23,-17.87,-18.83,0,*46
1505376124.18,26263,16.06,73608.3,12.29,-17.97,-18.79,0,*49
1505376125.42,26264,16.06,73604.8,12.33,-18.73,-19.75,0,*4D
1505376126.65,26265,16.06,73596.5,12.35,-18.49,-19.41,0,*44
1505376127.91,26266,16.06,73600.0,12.35,-22.17,-23.33,0,*49
1505376129.18,26267,16.06,73606.5,12.33,-20.35,-21.33,0,*4E
1505376130.41,26268,16.06,73594.3,12.35,-21.23,-22.37,0,*46
1505376131.7,26269,16.06,73600.3,12.33,-21.67,-22.77,0,*45
1505376132.92,26270,16.06,73598.0,12.31,-21.27,-22.41,0,*4E
1505376134.13,26271,16.06,73590.3,12.31,-20.39,-21.63,0,*42
1505376135.33,26272,16.06,73588.5,12.31,-20.25,-21.17,0,*4F
1505376136.57,26273,16.06,73588.3,12.31,-19.27,-20.09,0,*48
1505376137.8,26274,16.06,73596.0,12.33,-18.21,-19.03,0,*4A
1505376139.0,26275,16.06,73590.8,12.35,-17.87,-18.79,0,*42
1505376140.23,26276,16.06,73594.5,12.39,-18.45,-19.27,0,*46
1505376141.48,26277,16.06,73596.0,12.41,-18.45,-19.23,0,*4C
1505376142.72,26278,16.06,73600.0,12.43,-18.65,-19.57,0,*40
1505376143.92,26279,16.06,73600.0,12.43,-18.49,-19.47,0,*4E
1505376145.14,26280,16.06,73606.5,12.49,-18.11,-19.07,0,*4B
1505376146.37,26281,16.06,73610.3,12.45,-18.17,-19.17,0,*41
1505376147.6,26282,16.06,73610.5,12.51,-17.55,-18.45,0,*48
1505376148.83,26283,16.06,73604.0,12.53,-18.83,-19.75,0,*4D
1505376150.07,26284,16.06,73612.3,12.55,-18.65,-19.57,0,*44
1505376151.31,26285,16.06,73612.3,12.57,-19.13,-20.05,0,*4A
1505376152.58,26286,16.06,73618.0,12.57,-20.19,-21.33,0,*4D
1505376153.78,26287,16.06,73616.5,12.55,-21.17,-22.41,0,*47
1505376155.01,26288,16.06,73626.8,12.55,-20.99,-22.07,0,*4D
1505376156.25,26289,16.06,73610.3,12.51,-24.11,-25.49,0,*41
1505376157.47,26290,16.06,73614.0,12.51,-22.63,-23.69,0,*4E
1505376158.7,26291,16.06,73598.5,12.49,-20.63,-21.73,0,*4D
1505376159.94,26292,16.06,73590.0,12.45,-21.73,-22.97,0,*4B
1505376161.2,26293,16.06,73582.3,12.45,-20.93,-21.87,0,*47
1505376162.42,26294,16.06,73566.0,12.43,-20.19,-21.17,0,*4D
1505376163.65,26295,16.06,73562.0,12.41,-20.69,-21.77,0,*4F
1505376164.9,26296,16.06,73560.5,12.43,-20.49,-21.57,0,*4E
1505376166.18,26297,16.06,73570.5,12.45,-20.35,-21.27,0,*45
1505376167.44,26298,16.06,73564.3,12.45,-19.75,-20.83,0,*4B
1505376168.67,26299,16.06,73570.3,12.45,-20.69,-21.77,0,*47
1505376169.9,26300,16.06,73570.3,12.41,-21.13,-22.11,0,*4D
1505376171.11,26301,16.06,73572.0,12.43,-21.17,-22.37,0,*4E
1505376172.33,26302,16.13,73574.3,12.43,-22.37,-23.49,0,*44
1505376173.6,26303,16.06,73580.8,12.41,-20.99,-21.93,0,*44
1505376174.83,26304,16.06,73588.0,12.39,-23.13,-24.25,0,*45
1505376176.05,26305,16.06,73594.8,12.37,-21.43,-22.67,0,*4D
1505376177.28,26306,16.13,73598.5,12.37,-21.39,-22.37,0,*46
1505376178.51,26307,16.06,73600.5,12.37,-20.43,-21.39,0,*46
1505376179.74,26308,16.13,73600.8,12.37,-18.79,-19.71,0,*4C
1505376181.0,26309,16.06,73608.3,12.41,-18.59,-19.51,0,*4C
1505376182.22,26310,16.06,73614.8,12.41,-20.05,-21.13,0,*4B
1505376183.45,26311,16.13,73614.8,12.43,-18.83,-19.85,0,*49
1505376184.69,26312,16.06,73608.8,12.43,-19.17,-20.19,0,*49
1505376185.91,26313,16.06,73610.5,12.43,-19.75,-20.79,0,*4A
1505376187.18,26314,16.13,73612.3,12.45,-19.57,-20.39,0,*4F
1505376188.42,26315,16.06,73610.5,12.45,-18.79,-19.75,0,*41
1505376189.65,26316,16.13,73610.8,12.51,-19.47,-20.53,0,*45
1505376190.91,26317,16.13,73610.8,12.53,-19.65,-20.59,0,*4C
1505376192.14,26318,16.13,73608.5,12.51,-18.73,-19.65,0,*42
1505376193.38,26319,16.13,73604.5,12.53,-19.07,-19.95,0,*4C
1505376194.62,26320,16.06,73606.5,12.53,-17.93,-18.83,0,*43
1505376195.87,26321,16.06,73606.3,12.57,-17.63,-18.49,0,*4F
1505376197.1,26322,16.13,73610.8,12.57,-17.73,-18.65,0,*43
1505376198.33,26323,16.13,73612.5,12.59,-18.35,-19.13,0,*41
1505376199.62,26324,16.13,73618.5,12.63,-18.31,-19.31,0,*4B
1505376200.86,26325,16.13,73618.3,12.65,-19.13,-20.19,0,*4D
1505376202.07,26326,16.13,73614.3,12.65,-18.83,-19.75,0,*46
1505376203.31,26327,16.13,73612.0,12.65,-18.83,-19.61,0,*42
1505376204.56,26328,16.13,73608.0,12.67,-17.73,-18.59,0,*45
1505376205.79,26329,16.13,73606.5,12.69,-18.45,-19.27,0,*48
1505376206.99,26330,16.13,73604.0,12.73,-17.87,-18.79,0,*40
1505376208.26,26331,16.06,73602.8,12.73,-17.07,-17.97,0,*46
1505376209.53,26332,16.06,73606.5,12.75,-17.97,-18.89,0,*4A
1505376210.75,26333,16.13,73614.8,12.77,-17.93,-18.83,0,*47
1505376211.98,26334,16.13,73616.0,12.79,-18.17,-19.13,0,*45
1505376213.24,26335,16.13,73620.0,12.79,-18.83,-19.57,0,*49
1505376214.5,26336,16.13,73630.3,12.79,-19.99,-20.99,0,*48
1505376215.75,26337,16.13,73642.8,12.79,-19.75,-20.83,0,*40
1505376216.96,26338,16.06,73638.3,12.77,-20.39,-21.47,0,*4A
1505376218.21,26339,16.13,73638.0,12.79,-20.43,-21.53,0,*4D
1505376219.46,26340,16.13,73638.5,12.79,-21.09,-22.31,0,*4B
1505376220.69,26341,16.06,73644.3,12.77,-21.17,-22.21,0,*4A
1505376221.92,26342,16.13,73638.0,12.75,-21.63,-22.57,0,*49
1505376223.18,26343,16.06,73630.0,12.73,-21.53,-22.17,0,*49
1505376224.41,26344,16.13,73630.5,12.69,-20.83,-22.03,0,*4C
1505376225.67,26345,16.13,73630.0,12.69,-21.57,-22.77,0,*46
1505376226.95,26346,16.13,73622.5,12.67,-23.29,-24.41,0,*43
1505376228.16,26347,16.13,73622.3,12.65,-21.47,-22.53,0,*4F
1505376229.4,26348,16.13,73620.5,12.63,-21.17,-22.11,0,*45
1505376230.68,26349,16.13,73620.0,12.63,-21.23,-22.31,0,*41
1505376231.88,26350,16.13,73626.3,12.61,-21.09,-22.11,0,*41
1505376233.11,26351,16.13,73628.3,12.61,-20.09,-21.03,0,*41
1505376234.35,26352,16.13,73636.3,12.61,-19.31,-20.25,0,*46
1505376235.62,26353,16.13,73634.3,12.63,-19.61,-20.43,0,*40
1505376236.88,26354,16.13,73634.0,12.63,-19.99,-21.03,0,*45
1505376238.14,26355,16.13,73622.8,12.63,-20.93,-21.83,0,*4C
1505376239.39,26356,16.13,73620.3,12.63,-21.83,-22.93,0,*4D
1505376240.6,26357,16.13,73660.5,12.59,-21.73,-22.83,0,*4B
1505376241.8,26358,16.13,73648.8,12.59,-21.09,-22.07,0,*45
1505376243.0,26359,16.06,73656.5,12.59,-20.69,-21.77,0,*47
1505376244.23,26360,16.13,73654.8,12.59,-21.67,-22.83,0,*4A
1505376245.46,26361,16.13,73636.5,12.57,-20.93,-21.93,0,*4D
1505376246.67,26362,16.13,73626.8,12.55,-21.77,-22.83,0,*45
1505376247.92,26363,16.13,73626.0,12.55,-21.27,-22.21,0,*49
1505376249.14,26364,16.13,73628.5,12.55,-20.49,-21.43,0,*40
1505376250.4,26365,16.13,73634.0,12.55,-20.83,-21.87,0,*4F
1505376251.6,26366,16.13,73626.8,12.55,-21.93,-22.87,0,*4F
1505376252.83,26367,16.13,73636.0,12.53,-20.89,-21.93,0,*44
1505376254.08,26368,16.13,73632.5,12.53,-20.05,-21.03,0,*46
1505376255.33,26369,16.13,73630.8,12.53,-20.73,-21.67,0,*44
1505376256.58,26370,16.13,73630.3,12.53,-20.69,-21.53,0,*40
1505376257.77,26371,16.13,73630.3,12.51,-20.29,-21.39,0,*4B
1505376259.0,26372,16.13,73628.5,12.53,-21.09,-21.93,0,*49
1505376260.25,26373,16.13,73628.8,12.53,-20.39,-21.33,0,*40
1505376261.49,26374,16.13,73630.3,12.55,-19.57,-20.39,0,*48
1505376262.71,26375,16.13,73626.3,12.55,-20.35,-21.17,0,*4A
1505376263.91,26376,16.13,73624.0,12.55,-20.25,-21.17,0,*48
1505376265.16,26377,16.13,73626.3,12.57,-19.47,-20.39,0,*48
1505376266.42,26378,16.13,73628.5,12.57,-18.79,-19.61,0,*4C
1505376267.67,26379,16.13,73622.0,12.57,-19.75,-20.79,0,*43
1505376268.88,26380,16.13,73618.0,12.59,-19.37,-20.29,0,*48
1505376270.09,26381,16.13,73612.5,12.61,-19.91,-20.93,0,*4F
1505376271.36,26382,16.13,73618.0,12.59,-19.57,-20.49,0,*4A
1505376272.62,26383,16.13,73616.0,12.59,-19.27,-20.19,0,*49
1505376273.88,26384,16.13,73616.0,12.61,-20.15,-20.83,0,*4D
1505376275.1,26385,16.13,73614.3,12.59,-19.71,-20.79,0,*4A
1505376276.33,26386,16.13,73610.5,12.59,-21.39,-22.31,0,*40
1505376277.53,26387,16.13,73608.0,12.59,-20.73,-21.73,0,*4B
1505376278.75,26388,16.13,73610.0,12.59,-20.15,-21.13,0,*42
1505376280.0,26389,16.13,73614.5,12.59,-20.79,-21.67,0,*4A
1505376281.24,26390,16.13,73608.3,12.59,-19.57,-20.43,0,*43
1505376282.48,26391,16.13,73614.3,12.61,-19.99,-21.03,0,*4E
1505376283.72,26392,16.13,73610.3,12.61,-19.61,-20.59,0,*44
1505376284.96,26393,16.13,73608.3,12.61,-19.61,-20.69,0,*46
1505376286.17,26394,16.13,73608.5,12.61,-20.39,-21.39,0,*42
1505376287.38,26395,16.13,73614.8,12.61,-20.39,-21.39,0,*43
1505376288.64,26396,16.13,73616.5,12.63,-20.59,-21.53,0,*48
1505376289.87,26397,16.13,73618.5,12.59,-19.95,-20.79,0,*43
1505376291.11,26398,16.13,73616.3,12.61,-19.31,-20.39,0,*4D
1505376292.32,26399,16.13,73616.3,12.61,-19.91,-20.73,0,*48
1505376293.59,26400,16.13,73616.0,12.65,-19.61,-20.53,0,*46
1505376294.85,26401,16.13,73610.8,12.63,-20.39,-21.33,0,*41
1505376296.11,26402,16.13,73608.5,12.63,-20.39,-21.23,0,*43
1505376297.34,26403,16.13,73604.3,12.63,-20.93,-22.03,0,*43
1505376298.6,26404,16.13,73604.0,12.63,-21.83,-22.87,0,*48
1505376299.79,26405,16.13,73614.5,12.59,-20.73,-21.73,0,*46
1505376301.05,26406,16.13,73614.5,12.63,-20.73,-21.83,0,*43
1505376302.27,26407,16.13,73616.5,12.59,-21.57,-22.53,0,*42
1505376303.53,26408,16.13,73612.3,12.59,-20.35,-21.23,0,*4C
1505376304.75,26409,16.13,73630.0,12.59,-20.79,-21.73,0,*40
1505376305.98,26410,16.13,73628.5,12.59,-19.65,-20.73,0,*4E
1505376307.2,26411,16.13,73614.8,12.59,-20.35,-21.39,0,*4F
1505376308.43,26412,16.13,73612.0,12.59,-19.99,-20.99,0,*4B
1505376309.65,26413,16.13,73614.3,12.61,-19.51,-20.43,0,*42
1505376310.86,26414,16.13,73616.3,12.61,-19.75,-20.69,0,*4B
1505376312.09,26415,16.13,73614.5,12.61,-21.63,-22.77,0,*4B
1505376313.3,26416,16.13,73624.0,12.59,-20.59,-21.39,0,*42
1505376314.58,26417,16.13,73620.3,12.63,-20.53,-21.53,0,*4C
1505376315.78,26418,16.13,73620.5,12.59,-20.43,-21.43,0,*4A
1505376317.0,26419,16.13,73616.3,12.59,-20.35,-21.39,0,*47
1505376318.21,26420,16.13,73622.3,12.61,-21.39,-22.57,0,*40
1505376319.41,26421,16.13,73624.3,12.59,-20.63,-21.73,0,*41
1505376320.64,26422,16.13,73620.5,12.59,-20.59,-21.57,0,*4D
1505376321.89,26423,16.13,73626.5,12.59,-20.35,-21.27,0,*41
1505376323.14,26424,16.13,73620.3,12.59,-22.21,-23.49,0,*4B
1505376324.37,26425,16.13,73618.0,12.55,-22.53,-23.65,0,*4D
1505376325.57,26426,16.13,73612.0,12.55,-22.03,-23.09,0,*41
1505376326.85,26427,16.13,73616.0,12.53,-21.97,-23.03,0,*42
1505376328.05,26428,16.13,73616.3,12.51,-22.27,-23.39,0,*4E
1505376329.28,26429,16.13,73604.5,12.51,-21.83,-22.93,0,*43
1505376330.54,26430,16.13,73616.3,12.53,-20.89,-21.97,0,*45
1505376331.76,26431,16.19,73624.8,12.51,-23.39,-24.71,0,*43
1505376333.02,26432,16.13,73624.3,12.45,-23.19,-23.79,0,*48
1505376334.28,26433,16.13,73622.0,12.41,-23.09,-24.41,0,*40
1505376335.49,26434,16.13,73628.8,12.39,-24.61,-26.03,0,*45
1505376336.72,26435,16.13,73640.0,12.39,-23.33,-24.61,0,*42
1505376337.99,26436,16.13,73624.8,12.33,-23.09,-24.41,0,*40
1505376339.24,26437,16.13,73618.3,12.33,-23.43,-24.67,0,*4B
1505376340.45,26438,16.13,73612.8,12.31,-23.43,-24.97,0,*49
1505376341.71,26439,16.13,73604.8,12.29,-23.95,-25.19,0,*4D
1505376342.96,26440,16.13,73608.0,12.27,-22.47,-23.65,0,*4E
1505376344.2,26441,16.13,73618.8,12.27,-21.53,-22.67,0,*4A
1505376345.42,26442,16.13,73622.3,12.23,-22.07,-23.29,0,*44
1505376346.67,26443,16.13,73626.8,12.23,-22.73,-23.85,0,*40
1505376347.89,26444,16.13,73622.8,12.21,-22.27,-23.39,0,*43
1505376349.15,26445,16.13,73630.5,12.19,-21.53,-22.73,0,*46
1505376350.38,26446,16.13,73624.8,12.21,-21.47,-22.53,0,*49
1505376351.57,26447,16.19,73628.5,12.23,-20.05,-21.09,0,*41
1505376352.83,26448,16.13,73624.3,12.27,-19.23,-20.15,0,*48
1505376354.12,26449,16.13,73622.5,12.29,-18.59,-19.57,0,*47
1505376355.35,26450,16.13,73622.8,12.31,-18.41,-19.31,0,*4F
1505376356.58,26451,16.13,73616.8,12.33,-17.83,-18.73,0,*4A
1505376357.79,26452,16.19,73622.3,12.39,-17.87,-18.73,0,*47
1505376358.99,26453,16.19,73622.5,12.39,-17.87,-18.79,0,*4C
1505376360.25,26454,16.19,73620.5,12.41,-18.55,-19.37,0,*4F
1505376361.51,26455,16.19,73620.8,12.45,-18.55,-19.47,0,*4D
1505376362.76,26456,16.13,73618.5,12.45,-17.79,-18.65,0,*4E
1505376364.01,26457,16.13,73616.0,12.49,-17.55,-18.49,0,*43
1505376365.23,26458,16.13,73618.3,12.53,-18.11,-18.99,0,*45
1505376366.47,26459,16.13,73612.0,12.55,-19.57,-20.63,0,*4F
1505376367.72,26460,16.19,73612.8,12.55,-18.35,-19.27,0,*4A
1505376368.96,26461,16.19,73618.0,12.55,-18.65,-19.57,0,*49
1505376370.19,26462,16.13,73616.8,12.55,-18.65,-19.61,0,*4F
1505376371.43,26463,16.19,73622.5,12.59,-18.89,-19.81,0,*4E
1505376372.64,26464,16.19,73616.0,12.59,-18.99,-19.99,0,*41
1505376373.86,26465,16.19,73616.3,12.59,-20.35,-21.43,0,*41
1505376375.09,26466,16.19,73612.8,12.59,-19.13,-20.15,0,*4E
1505376376.32,26467,16.19,73610.5,12.59,-19.81,-20.89,0,*41
1505376377.53,26468,16.19,73610.5,12.61,-19.75,-20.93,0,*45
1505376378.76,26469,16.19,73614.3,12.61,-20.15,-21.17,0,*45
1505376379.99,26470,16.19,73608.3,12.61,-20.43,-21.53,0,*4E
1505376381.22,26471,16.19,73616.0,12.59,-20.99,-22.03,0,*45
1505376382.48,26472,16.19,73610.0,12.59,-20.49,-21.53,0,*4D
1505376383.68,26473,16.19,73612.5,12.59,-18.99,-19.99,0,*47
1505376384.91,26474,16.19,73618.5,12.61,-18.93,-19.75,0,*43
1505376386.17,26475,16.19,73616.8,12.59,-18.93,-19.81,0,*42
1505376387.4,26476,16.19,73620.0,12.61,-20.43,-21.57,0,*4C
1505376388.62,26477,16.19,73622.3,12.61,-19.47,-20.43,0,*47
1505376389.83,26478,16.19,73620.8,12.61,-19.17,-20.29,0,*41
1505376391.09,26479,16.19,73616.8,12.63,-18.93,-20.09,0,*4D
1505376392.32,26480,16.19,73616.5,12.63,-20.39,-21.47,0,*4B
1505376393.58,26481,16.19,73620.3,12.63,-19.75,-20.83,0,*41
1505376394.83,26482,16.19,73614.8,12.63,-19.07,-19.81,0,*4F
1505376396.12,26483,16.19,73608.0,12.67,-18.59,-19.57,0,*4B
1505376397.35,26484,16.19,73612.0,12.69,-18.21,-19.23,0,*4E
1505376398.58,26485,16.19,73620.3,12.69,-17.59,-18.49,0,*42
1505376399.82,26486,16.19,73628.5,12.75,-17.59,-18.69,0,*4E
1505376401.1,26487,16.19,73634.5,12.75,-17.93,-18.89,0,*47
1505376402.32,26488,16.19,73628.8,12.77,-17.59,-18.49,0,*40
1505376403.57,26489,16.19,73628.0,12.79,-17.59,-18.49,0,*4F
1505376404.8,26490,16.19,73630.0,12.81,-17.93,-18.65,0,*48
1505376406.05,26491,16.19,73630.0,12.81,-17.11,-18.01,0,*41
1505376407.31,26492,16.19,73638.3,12.83,-17.07,-17.87,0,*46
1505376408.57,26493,16.19,73636.5,12.87,-17.45,-18.45,0,*44
1505376409.83,26494,16.19,73636.8,12.89,-18.31,-19.23,0,*40
1505376411.07,26495,16.19,73632.0,12.91,-18.01,-19.07,0,*4D
1505376412.31,26496,16.19,73626.5,12.89,-19.99,-21.23,0,*4A
1505376413.57,26497,16.19,73618.8,12.91,-19.31,-20.25,0,*47
1505376414.8,26498,16.19,73618.5,12.91,-17.87,-18.73,0,*43
1505376416.02,26499,16.19,73612.5,12.91,-18.17,-19.07,0,*46
1505376417.25,26500,16.19,73620.3,12.91,-17.83,-18.65,0,*40
1505376418.48,26501,16.19,73622.8,12.95,-17.07,-17.83,0,*4E
1505376419.72,26502,16.19,73618.3,12.97,-20.25,-21.47,0,*46
1505376420.92,26503,16.19,73608.5,12.95,-20.89,-22.07,0,*44
1505376422.15,26504,16.19,73604.0,12.95,-20.69,-21.83,0,*42
1505376423.41,26505,16.19,73608.3,12.95,-21.83,-23.03,0,*4C
1505376424.67,26506,16.19,73612.8,12.89,-21.23,-22.31,0,*48
1505376425.92,26507,16.19,73624.0,12.87,-21.09,-22.17,0,*4B
1505376427.15,26508,16.19,73622.8,12.85,-22.77,-24.05,0,*49
1505376428.37,26509,16.19,73612.8,12.81,-22.63,-23.95,0,*47
1505376429.58,26510,16.19,73608.0,12.81,-21.77,-22.83,0,*4F
1505376430.83,26511,16.19,73602.0,12.79,-21.57,-22.83,0,*4B
1505376432.05,26512,16.19,73612.5,12.77,-20.09,-21.27,0,*41
1505376433.25,26513,16.19,73612.8,12.77,-20.09,-21.13,0,*47
1505376434.5,26514,16.19,73624.8,12.77,-19.81,-20.99,0,*49
1505376435.7,26515,16.19,73620.0,12.77,-21.63,-22.87,0,*42
1505376436.93,26516,16.19,73624.8,12.77,-23.33,-24.77,0,*4F
1505376438.19,26517,16.19,73616.8,12.69,-23.99,-25.29,0,*4B
1505376439.45,26518,16.19,73614.0,12.67,-20.63,-21.83,0,*48
1505376440.67,26519,16.19,73618.5,12.67,-20.73,-21.73,0,*47
1505376441.9,26520,16.19,73620.5,12.69,-21.27,-22.37,0,*40
1505376443.14,26521,16.19,73622.8,12.65,-21.33,-22.53,0,*4A
1505376444.39,26522,16.19,73622.0,12.65,-19.31,-20.39,0,*4E
1505376445.64,26523,16.19,73626.5,12.67,-19.07,-20.15,0,*46
1505376446.91,26524,16.19,73626.8,12.67,-20.43,-21.53,0,*48
1505376448.18,26525,16.19,73616.8,12.67,-19.57,-20.63,0,*44
1505376449.43,26526,16.19,73616.5,12.69,-19.65,-20.79,0,*43
1505376450.69,26527,16.19,73620.5,12.67,-22.31,-23.13,0,*4A
1505376451.89,26528,16.19,73622.0,12.69,-20.59,-21.73,0,*43
1505376453.15,26529,16.19,73630.8,12.67,-21.09,-22.17,0,*49
1505376454.41,26530,16.19,73634.0,12.67,-20.19,-21.39,0,*4E
1505376455.68,26531,16.19,73634.3,12.67,-19.27,-20.29,0,*48
1505376456.92,26532,16.19,73614.0,12.69,-19.57,-20.59,0,*45
1505376458.18,26533,16.19,73610.5,12.67,-19.13,-20.15,0,*42
1505376459.44,26534,16.19,73592.5,12.67,-20.15,-21.13,0,*4E
1505376460.67,26535,16.19,73598.8,12.69,-21.53,-22.53,0,*45
1505376461.9,26536,16.19,73610.5,12.69,-21.83,-22.67,0,*4C
1505376463.16,26537,16.19,73612.5,12.67,-18.93,-19.99,0,*41
1505376464.37,26538,16.19,73618.3,12.69,-18.73,-19.51,0,*4A
1505376465.57,26539,16.19,73610.5,12.73,-18.49,-19.51,0,*49
1505376466.83,26540,16.19,73618.3,12.75,-18.49,-19.41,0,*40
1505376468.05,26541,16.19,73622.0,12.75,-17.31,-18.11,0,*45
1505376469.3,26542,16.19,73626.8,12.79,-17.79,-18.65,0,*45
1505376470.52,26543,16.19,73632.8,12.81,-18.01,-19.07,0,*46
1505376471.77,26544,16.19,73628.5,12.83,-18.73,-19.85,0,*4C
1505376473.02,26545,16.19,73628.5,12.83,-20.09,-21.33,0,*4D
1505376474.22,26546,16.19,73626.0,12.81,-21.39,-22.37,0,*49
1505376475.5,26547,16.25,73630.0,12.83,-20.15,-21.23,0,*43
1505376476.73,26548,16.25,73624.8,12.83,-20.89,-22.11,0,*4B
1505376477.98,26549,16.19,73620.3,12.79,-21.13,-22.21,0,*4E
1505376479.23,26550,16.25,73628.5,12.79,-20.83,-21.93,0,*44
1505376480.48,26551,16.25,73628.0,12.77,-20.35,-21.27,0,*49
1505376481.72,26552,16.19,73624.5,12.77,-19.17,-20.19,0,*4C
1505376482.98,26553,16.25,73628.0,12.77,-19.57,-20.53,0,*47
1505376484.19,26554,16.25,73628.0,12.81,-19.51,-20.69,0,*46
1505376485.45,26555,16.25,73634.3,12.79,-18.79,-19.57,0,*4C
1505376486.66,26556,16.19,73628.5,12.81,-19.07,-20.05,0,*4D
1505376487.94,26557,16.25,73628.8,12.83,-19.65,-20.79,0,*41
1505376489.17,26558,16.19,73630.5,12.81,-20.83,-22.03,0,*41
1505376490.4,26559,16.25,73634.5,12.81,-19.85,-20.93,0,*47
1505376491.62,26560,16.19,73630.0,12.79,-20.93,-22.03,0,*4C
1505376492.85,26561,16.19,73624.0,12.77,-21.63,-22.73,0,*4A
1505376494.08,26562,16.25,73622.8,12.77,-21.57,-22.67,0,*4B
1505376495.3,26563,16.25,73616.8,12.77,-21.27,-22.27,0,*49